�N����,����,�~����,�C��,���x,�C��,����,���ϕ���,�ő�u�ԕ���,�ő厞����,���˗�,�I�_���x,�n�����x,�ő啗���N��,DTYPE
"19/04/27","00:10",0.0,11.9,89.0,1002.4,303.8,1.3,2.0,340.8,0.00,10.2,15.8,"00:06:56",1
"19/04/27","00:20",0.0,11.8,89.6,1002.2,313.3,1.6,2.1,337.3,0.00,10.2,15.8,"00:16:00",1
"19/04/27","00:30",0.0,11.6,90.6,1001.7,310.4,1.5,2.5,329.5,0.00,10.2,15.9,"00:23:28",1
"19/04/27","00:40",0.0,11.6,90.9,1001.9,334.7,1.7,2.9,331.2,0.00,10.2,15.7,"00:37:28",1
"19/04/27","00:50",0.2,11.5,91.3,1002.4,285.5,1.3,2.1,304.3,0.00,10.2,15.8,"00:42:24",1
"19/04/27","01:00",0.0,11.4,91.4,1002.9,292.9,1.6,3.7,279.0,0.00,10.1,15.6,"00:55:28",1
"19/04/27","01:10",0.2,11.5,91.7,1002.4,301.4,1.7,2.7,337.1,0.00,10.2,15.6,"01:02:08",1
"19/04/27","01:20",0.0,11.5,91.8,1002.9,321.3,2.3,3.7,339.5,0.00,10.3,15.7,"01:14:20",1
"19/04/27","01:30",0.0,11.3,92.0,1003.1,298.5,1.8,4.0,328.5,0.00,10.1,15.6,"01:26:48",1
"19/04/27","01:40",0.2,11.1,91.7,1003.6,305.4,2.3,4.7,328.0,0.00,9.8,15.7,"01:36:20",1
"19/04/27","01:50",0.8,11.1,91.4,1003.6,303.6,1.5,3.3,19.1,0.00,9.8,15.4,"01:43:18",1
"19/04/27","02:00",0.2,11.0,91.3,1003.8,307.0,1.6,2.8,342.6,0.00,9.7,15.4,"01:58:44",1
"19/04/27","02:10",0.0,10.8,91.2,1003.8,299.3,1.6,3.2,343.2,0.00,9.5,15.2,"02:06:58",1
"19/04/27","02:20",0.2,10.8,91.0,1004.1,312.7,1.5,4.1,350.3,0.00,9.4,15.4,"02:12:16",1
"19/04/27","02:30",0.0,10.8,90.6,1004.1,319.2,1.6,3.1,319.3,0.00,9.4,15.2,"02:26:18",1
"19/04/27","02:40",0.0,10.8,90.5,1004.3,331.2,1.6,3.1,338.1,0.00,9.3,15.1,"02:32:08",1
"19/04/27","02:50",0.0,10.8,90.8,1003.6,306.8,1.2,1.9,314.9,0.00,9.4,15.1,"02:45:26",1
"19/04/27","03:00",0.0,10.5,90.8,1003.8,306.5,1.8,4.2,340.0,0.00,9.1,15.0,"02:52:50",1
"19/04/27","03:10",0.0,10.4,90.8,1004.1,320.8,1.8,3.2,339.7,0.00,9.0,15.1,"03:00:40",1
"19/04/27","03:20",0.0,10.5,91.1,1003.8,300.2,1.2,2.6,332.6,0.00,9.2,15.1,"03:10:24",1
"19/04/27","03:30",0.0,10.1,90.5,1003.8,315.3,1.3,3.1,43.6,0.00,8.7,15.0,"03:28:58",1
"19/04/27","03:40",0.0,10.3,91.0,1004.3,320.5,2.0,3.3,316.9,0.00,8.9,14.9,"03:32:08",1
"19/04/27","03:50",0.0,10.1,90.9,1004.3,328.9,2.2,4.7,342.0,0.00,8.7,14.9,"03:44:34",1
"19/04/27","04:00",0.0,9.9,90.7,1004.3,325.4,2.2,3.4,329.1,0.00,8.5,14.8,"03:57:08",1
"19/04/27","04:10",0.0,10.0,90.5,1004.3,321.8,2.3,4.5,340.0,0.00,8.6,14.9,"04:08:48",1
"19/04/27","04:20",0.0,10.1,90.2,1004.5,320.4,1.8,2.6,337.4,0.00,8.6,15.0,"04:13:04",1
"19/04/27","04:30",0.0,10.0,90.1,1004.5,314.2,2.0,3.3,319.5,0.00,8.5,14.7,"04:26:16",1
"19/04/27","04:40",0.0,9.9,89.9,1004.8,324.7,2.3,7.1,334.6,0.00,8.4,14.7,"04:37:20",1
"19/04/27","04:50",0.0,9.9,89.1,1004.8,307.1,2.6,5.8,343.6,0.00,8.2,14.7,"04:48:08",1
"19/04/27","05:00",0.0,10.0,88.3,1004.8,302.9,1.8,3.5,323.5,0.00,8.2,14.8,"04:50:32",1
"19/04/27","05:10",0.0,9.9,87.7,1004.8,308.4,2.2,5.0,322.0,0.00,8.0,14.6,"05:09:26",1
"19/04/27","05:20",0.0,9.9,86.7,1005.2,305.7,2.2,4.1,341.2,0.00,7.8,14.4,"05:10:12",1
"19/04/27","05:30",0.0,10.0,86.0,1005.0,297.8,2.5,3.7,328.3,0.00,7.8,14.7,"05:20:08",1
"19/04/27","05:40",0.0,10.0,85.6,1005.2,294.9,1.7,3.2,305.0,0.00,7.7,14.7,"05:32:08",1
"19/04/27","05:50",0.0,9.9,85.8,1005.2,294.7,2.2,5.1,325.2,0.00,7.7,14.7,"05:48:32",1
"19/04/27","06:00",0.0,10.1,85.8,1005.7,286.3,1.8,3.9,334.5,0.00,7.9,14.3,"05:52:24",1
"19/04/27","06:10",0.0,10.1,86.2,1005.5,309.1,2.1,3.6,316.0,0.00,7.9,14.4,"06:04:08",1
"19/04/27","06:20",0.0,9.9,86.4,1005.5,310.0,2.7,5.6,359.7,0.00,7.8,14.2,"06:12:48",1
"19/04/27","06:30",0.0,10.1,85.6,1006.0,305.9,3.0,6.5,322.9,0.02,7.8,14.4,"06:28:32",1
"19/04/27","06:40",0.0,10.2,83.7,1006.0,326.7,3.9,6.3,315.8,0.02,7.6,14.3,"06:34:08",1
"19/04/27","06:50",0.0,10.4,82.7,1006.2,310.0,3.2,7.1,332.7,0.03,7.6,14.3,"06:40:16",1
"19/04/27","07:00",0.0,10.4,81.2,1006.0,310.9,4.1,10.8,346.7,0.05,7.4,14.5,"06:54:56",1
"19/04/27","07:10",0.0,10.7,79.3,1006.9,298.9,2.6,6.4,320.7,0.11,7.3,14.3,"07:08:40",1
"19/04/27","07:20",0.0,10.7,78.8,1006.9,316.0,3.4,7.5,339.5,0.12,7.2,14.4,"07:15:28",1
"19/04/27","07:30",0.2,10.8,76.1,1007.1,323.2,4.5,9.4,322.4,0.19,6.8,14.4,"07:29:52",1
"19/04/27","07:40",0.0,10.9,74.7,1007.6,325.8,3.7,6.4,304.7,0.19,6.6,14.3,"07:34:08",1
"19/04/27","07:50",0.0,11.0,75.4,1007.8,315.7,3.6,7.8,351.1,0.19,6.9,14.3,"07:43:12",1
"19/04/27","08:00",0.0,11.2,75.7,1007.8,322.7,4.2,10.0,320.1,0.22,7.1,14.2,"07:55:52",1
"19/04/27","08:10",0.0,11.1,75.0,1008.3,328.0,5.0,9.5,347.1,0.26,6.9,14.5,"08:03:04",1
"19/04/27","08:20",0.0,11.7,72.8,1008.1,325.6,3.5,6.5,327.2,0.28,7.0,14.5,"08:14:40",1
"19/04/27","08:30",0.0,11.3,68.1,1008.6,316.7,5.2,11.8,337.7,0.29,5.7,14.5,"08:23:52",1
"19/04/27","08:40",0.0,12.0,66.1,1008.3,325.6,3.7,6.8,326.7,0.33,5.9,14.6,"08:38:16",1
"19/04/27","08:50",0.0,10.7,71.2,1009.3,299.5,3.4,8.1,334.5,0.18,5.7,14.5,"08:44:08",1
"19/04/27","09:00",0.0,11.2,70.0,1009.3,316.2,3.0,6.8,302.9,0.31,6.0,14.6,"08:50:08",1
"19/04/27","09:10",0.0,10.6,71.4,1009.3,317.5,3.1,7.3,331.2,0.22,5.7,14.6,"09:09:20",1
"19/04/27","09:20",0.0,10.7,69.4,1009.3,331.9,3.9,8.7,336.3,0.25,5.4,14.8,"09:10:24",1
"19/04/27","09:30",0.0,11.0,66.9,1009.5,305.2,3.1,7.0,259.7,0.21,5.1,14.6,"09:20:56",1
"19/04/27","09:40",0.0,10.5,65.2,1009.7,331.1,4.1,9.4,322.0,0.13,4.3,14.5,"09:38:24",1
"19/04/27","09:50",0.0,11.2,62.7,1009.5,289.3,3.0,6.6,317.9,0.31,4.4,14.9,"09:41:12",1
"19/04/27","10:00",0.0,10.9,62.6,1009.3,336.2,3.6,8.1,317.6,0.15,4.1,15.0,"09:55:36",1
"19/04/27","10:10",0.0,11.2,64.8,1009.3,334.4,4.2,11.3,340.3,0.24,4.9,14.9,"10:07:12",1
"19/04/27","10:20",0.0,10.5,68.3,1009.5,325.6,4.5,8.3,337.0,0.20,5.0,14.8,"10:16:56",1
"19/04/27","10:30",0.0,10.7,69.5,1009.5,322.7,3.7,7.5,315.3,0.26,5.4,15.0,"10:24:40",1
"19/04/27","10:40",0.0,11.9,60.7,1009.5,326.5,3.4,8.2,338.6,0.53,4.6,15.0,"10:36:08",1
"19/04/27","10:50",0.0,11.7,57.6,1010.0,333.9,4.6,11.7,339.0,0.44,3.7,15.0,"10:47:20",1
"19/04/27","11:00",0.0,12.8,53.8,1010.0,343.4,4.5,10.1,336.8,0.60,3.7,15.2,"10:51:20",1
"19/04/27","11:10",0.0,12.4,50.3,1010.2,338.1,3.5,8.7,335.8,0.47,2.4,15.3,"11:00:24",1
"19/04/27","11:20",0.0,11.9,51.3,1009.7,347.4,3.6,10.2,325.3,0.36,2.2,15.4,"11:17:12",1
"19/04/27","11:30",0.0,12.7,53.2,1009.7,328.4,3.7,7.3,295.1,0.57,3.5,15.5,"11:20:56",1
"19/04/27","11:40",0.0,12.1,52.1,1009.7,349.1,3.7,8.1,349.4,0.45,2.6,15.7,"11:39:52",1
"19/04/27","11:50",0.0,11.7,52.0,1010.2,332.3,5.1,10.2,305.0,0.42,2.2,15.8,"11:46:00",1
"19/04/27","12:00",0.0,12.5,49.6,1009.7,328.6,5.4,11.1,331.3,0.49,2.3,15.7,"11:58:56",1
"19/04/27","12:10",0.0,13.0,49.2,1010.0,325.4,4.9,11.6,351.9,0.64,2.6,16.1,"12:08:00",1
"19/04/27","12:20",0.0,13.3,48.0,1010.4,321.5,5.0,11.8,344.9,0.58,2.6,15.7,"12:18:40",1
"19/04/27","12:30",0.0,13.2,48.2,1010.7,331.1,5.2,14.6,333.0,0.58,2.5,15.9,"12:20:24",1
"19/04/27","12:40",0.0,13.0,45.9,1010.7,328.5,6.1,14.4,331.9,0.66,1.7,16.2,"12:38:32",1
"19/04/27","12:50",0.0,12.9,50.1,1010.7,339.5,5.2,10.2,351.2,0.48,2.8,16.4,"12:40:56",1
"19/04/27","13:00",0.0,12.3,50.9,1010.9,345.4,5.0,11.0,351.4,0.45,2.5,16.2,"12:54:56",1
"19/04/27","13:10",0.0,12.3,47.9,1011.2,338.0,6.4,16.7,338.4,0.59,1.6,16.6,"13:07:28",1
"19/04/27","13:20",0.0,12.1,50.8,1011.2,333.4,6.0,11.4,340.2,0.34,2.3,16.6,"13:16:08",1
"19/04/27","13:30",0.0,13.4,51.6,1010.9,337.7,5.0,9.7,339.7,0.62,3.7,16.7,"13:27:52",1
"19/04/27","13:40",0.0,12.2,53.1,1011.4,342.5,4.2,8.5,351.5,0.42,3.0,16.5,"13:39:20",1
"19/04/27","13:50",0.0,12.3,53.3,1011.2,339.9,4.5,8.7,326.6,0.35,3.1,16.5,"13:44:18",1
"19/04/27","14:00",0.0,12.8,50.5,1011.2,336.6,5.5,11.2,335.5,0.52,2.8,16.5,"13:56:24",1
"19/04/27","14:10",0.0,12.9,50.0,1010.9,339.8,4.7,11.6,340.4,0.38,2.8,16.5,"14:02:24",1
"19/04/27","14:20",0.0,12.5,49.0,1010.9,324.7,5.4,10.9,332.1,0.29,2.1,16.5,"14:19:38",1
"19/04/27","14:30",0.0,13.0,48.7,1010.9,323.6,5.2,10.3,338.7,0.39,2.5,16.8,"14:25:04",1
"19/04/27","14:40",0.0,13.0,48.7,1011.2,316.6,4.1,10.4,332.3,0.40,2.5,16.5,"14:39:12",1
"19/04/27","14:50",0.0,12.6,51.2,1010.7,336.1,5.0,11.3,328.9,0.24,2.8,16.6,"14:41:52",1
"19/04/27","15:00",0.0,13.1,51.4,1010.9,344.8,4.5,8.5,48.2,0.35,3.4,16.7,"14:58:00",1
"19/04/27","15:10",0.0,13.0,51.0,1010.7,348.9,4.2,9.8,332.5,0.25,3.1,16.4,"15:05:36",1
"19/04/27","15:20",0.0,12.7,54.4,1010.9,345.4,3.6,7.5,17.5,0.29,3.8,16.3,"15:19:04",1
"19/04/27","15:30",0.0,12.7,55.0,1010.9,348.4,3.9,7.4,19.8,0.19,3.9,16.4,"15:22:08",1
"19/04/27","15:40",0.0,12.3,55.7,1010.9,339.4,4.6,9.3,338.2,0.17,3.7,16.4,"15:38:56",1
"19/04/27","15:50",0.0,13.0,53.9,1010.9,329.0,5.7,11.4,340.3,0.36,3.9,16.4,"15:43:44",1
"19/04/27","16:00",0.0,13.5,50.2,1010.7,318.2,5.4,8.3,337.1,0.41,3.4,16.5,"15:52:16",1
"19/04/27","16:10",0.0,14.1,50.8,1010.7,329.9,4.5,10.6,335.4,0.39,4.1,16.2,"16:06:40",1
"19/04/27","16:20",0.0,13.1,48.8,1010.9,357.8,5.1,10.4,354.2,0.29,2.6,16.5,"16:18:48",1
"19/04/27","16:30",0.0,12.1,52.6,1011.2,348.9,5.1,9.4,351.5,0.12,2.8,16.3,"16:21:44",1
"19/04/27","16:40",0.0,12.6,45.9,1011.4,347.2,4.4,11.2,349.2,0.26,1.3,16.3,"16:38:24",1
"19/04/27","16:50",0.0,12.7,44.3,1011.4,345.9,4.7,9.6,5.4,0.23,0.9,16.2,"16:48:24",1
"19/04/27","17:00",0.0,12.7,45.9,1011.6,339.2,5.1,9.1,351.0,0.21,1.4,16.2,"16:52:40",1
"19/04/27","17:10",0.0,12.6,45.7,1011.6,326.9,5.0,10.8,341.2,0.18,1.2,16.0,"17:08:56",1
"19/04/27","17:20",0.0,12.2,47.1,1011.6,324.5,4.4,10.0,308.8,0.11,1.3,16.2,"17:10:48",1
"19/04/27","17:30",0.0,11.9,48.5,1011.9,332.0,4.6,11.6,321.3,0.08,1.4,15.9,"17:24:24",1
"19/04/27","17:40",0.0,11.5,49.8,1011.9,335.6,4.1,7.5,340.6,0.04,1.4,15.8,"17:32:32",1
"19/04/27","17:50",0.0,11.2,52.3,1012.3,332.3,4.5,8.0,336.8,0.02,1.8,15.8,"17:42:56",1
"19/04/27","18:00",0.0,11.0,53.2,1012.3,331.7,3.5,8.1,336.5,0.01,1.9,15.8,"17:55:14",1
"19/04/27","18:10",0.0,11.0,54.5,1012.3,332.9,3.6,8.5,327.4,0.01,2.2,15.7,"18:03:28",1
"19/04/27","18:20",0.0,11.0,55.7,1012.3,325.2,2.7,4.8,319.7,0.01,2.5,15.6,"18:18:40",1
"19/04/27","18:30",0.0,10.9,56.2,1012.6,330.8,3.4,7.7,344.8,0.01,2.6,15.4,"18:28:42",1
"19/04/27","18:40",0.0,9.9,63.1,1013.0,353.1,3.4,6.2,2.4,0.00,3.3,15.5,"18:37:00",1
"19/04/27","18:50",0.2,9.0,70.7,1012.8,337.1,2.6,5.8,348.4,0.00,4.0,15.2,"18:41:06",1
"19/04/27","19:00",0.0,8.6,73.4,1012.8,348.9,1.6,3.6,325.6,0.00,4.2,14.8,"18:52:56",1
"19/04/27","19:10",0.0,8.4,75.8,1013.0,333.2,0.8,1.9,324.2,0.00,4.4,14.9,"19:06:52",1
"19/04/27","19:20",0.0,8.4,78.1,1013.3,152.0,0.6,1.3,301.5,0.00,4.8,15.1,"19:10:02",1
"19/04/27","19:30",0.0,8.3,79.9,1013.3,333.3,1.7,2.7,336.7,0.00,5.1,14.7,"19:23:12",1
"19/04/27","19:40",0.0,8.1,82.6,1013.0,312.4,1.0,1.7,330.8,0.00,5.4,14.6,"19:30:24",1
"19/04/27","19:50",0.0,7.9,83.9,1013.5,334.2,1.5,2.4,335.3,0.00,5.4,14.5,"19:49:52",1
"19/04/27","20:00",0.0,7.8,85.1,1013.3,302.2,1.6,3.1,335.0,0.00,5.5,14.6,"19:50:48",1
"19/04/27","20:10",0.0,7.7,86.2,1013.5,310.1,1.6,3.5,338.9,0.00,5.6,14.5,"20:02:52",1
"19/04/27","20:20",0.0,7.6,87.0,1013.8,321.9,1.6,2.4,328.2,0.00,5.6,14.6,"20:12:48",1
"19/04/27","20:30",0.0,7.3,87.5,1013.8,307.2,1.1,1.9,315.8,0.00,5.4,14.4,"20:20:48",1
"19/04/27","20:40",0.0,7.3,88.6,1013.5,297.5,1.8,2.6,318.1,0.00,5.6,14.3,"20:37:28",1
"19/04/27","20:50",0.0,7.5,89.3,1014.0,311.2,1.5,2.6,327.0,0.00,5.9,14.3,"20:49:36",1
"19/04/27","21:00",0.0,7.4,89.3,1013.8,328.2,1.7,3.2,329.2,0.00,5.8,14.3,"20:50:32",1
"19/04/27","21:10",0.0,7.2,90.0,1014.0,309.6,2.2,3.5,334.2,0.00,5.7,14.2,"21:09:36",1
"19/04/27","21:20",0.0,7.1,90.3,1014.0,305.6,1.7,2.4,315.6,0.00,5.7,14.0,"21:17:52",1
"19/04/27","21:30",0.0,7.1,91.1,1014.0,310.7,2.0,2.8,325.2,0.00,5.8,14.1,"21:25:28",1
"19/04/27","21:40",0.0,7.3,91.3,1014.5,325.4,1.7,2.4,333.9,0.00,6.0,14.1,"21:38:48",1
"19/04/27","21:50",0.2,7.5,91.4,1014.5,310.5,1.6,2.4,314.9,0.00,6.2,14.0,"21:46:34",1
"19/04/27","22:00",0.0,7.3,91.5,1014.5,290.1,1.1,2.4,322.1,0.00,6.0,13.9,"21:50:58",1
"19/04/27","22:10",0.0,7.2,91.6,1014.2,331.6,1.2,1.9,338.0,0.00,6.0,13.9,"22:02:54",1
"19/04/27","22:20",0.0,6.8,91.9,1014.2,329.9,1.6,2.9,325.1,0.00,5.6,14.0,"22:19:14",1
"19/04/27","22:30",0.0,6.8,92.8,1013.8,309.6,1.2,2.6,326.5,0.00,5.8,13.6,"22:26:40",1
"19/04/27","22:40",0.0,7.0,93.1,1014.0,301.2,1.6,2.1,307.6,0.00,6.0,13.8,"22:34:54",1
"19/04/27","22:50",0.0,7.1,93.4,1014.5,302.0,1.7,2.4,325.1,0.00,6.1,13.6,"22:41:52",1
"19/04/27","23:00",0.0,7.3,93.3,1014.2,293.2,1.3,2.6,328.1,0.00,6.3,13.7,"22:53:02",1
"19/04/27","23:10",0.0,7.2,93.1,1014.5,309.5,1.7,2.6,320.8,0.00,6.2,13.6,"23:05:04",1
"19/04/27","23:20",0.0,7.0,93.4,1014.2,315.2,1.5,2.1,323.5,0.00,6.0,13.5,"23:14:18",1
"19/04/27","23:30",0.0,6.5,93.2,1014.2,323.5,2.1,3.2,319.5,0.00,5.5,13.5,"23:22:46",1
"19/04/27","23:40",0.0,6.3,93.8,1014.2,309.1,1.7,3.2,321.7,0.00,5.4,13.3,"23:36:48",1
"19/04/27","23:50",0.0,6.2,93.9,1014.2,300.2,1.8,3.1,336.8,0.00,5.3,13.4,"23:44:48",1
"19/04/27","24:00",0.0,6.2,94.4,1014.9,313.4,1.6,2.6,327.2,0.00,5.4,13.3,"23:53:28",1
